Regional Weather Roundup
Issued by NWS

Home | Current Version | Previous Version | Graphics & Text | Print | Product List | Glossary On
Versions: 1 2 3 4 5 6 7 8 9 10 11 12 13 14 15 16 17 18 19 20 21 22 23 24 25 26 27 28 29 30 31 32 33 34 35 36 37 38 39 40 41 42 43 44 45 46 47 48 49 50
000
ASUS43 KTOP 041359
RWRKS

WEATHER ROUNDUP FOR KANSAS
NATIONAL WEATHER SERVICE GOODLAND KS
900 AM CDT SAT JUL 04 2015

NOTE:  "FAIR" INDICATES FEW OR NO CLOUDS BELOW 12,000 FEET WITH NO
SIGNIFICANT WEATHER AND/OR OBSTRUCTIONS TO VISIBILITY.

KSZ001>006-013>018-027>032-041>047-041500-
NORTHWEST KANSAS

CITY           SKY/WX    TMP DP  RH WIND       PRES   REMARKS
GOODLAND       SUNNY     70  61  73 S18       30.00R
HAYS           SUNNY     72  61  68 S12       30.00S
HILL CITY      SUNNY     73  63  70 S7        29.99F
RUSSELL        SUNNY     71  66  84 S13       29.99S
$$

KSZ061>065-074>080-084>089-041500-
SOUTHWEST KANSAS

CITY           SKY/WX    TMP DP  RH WIND       PRES   REMARKS
DODGE CITY     SUNNY     70  62  76 SE14      30.01F
ELKHART          N/A     70  59  68 S9          N/A
GARDEN CITY    SUNNY     71  62  73 SE12      30.01S
GREAT BEND     SUNNY     72  63  73 SE12      30.01S
LIBERAL        SUNNY     75  64  69 S9        30.04S
$$

KSZ066>073-081>083-090>101-041500-
SOUTHEAST KANSAS

CITY           SKY/WX    TMP DP  RH WIND       PRES   REMARKS
CHANUTE        SUNNY     74  63  68 E5        30.01R
COFFEYVILLE    SUNNY     76  67  73 E7        29.99R
HUTCHINSON     MOSUNNY   71  65  81 SE6       30.02R
MEDICINE LODGE   N/A     73  66  78 SE6       30.00S
NEWTON         SUNNY     72  61  68 S7        30.05R
PARSONS        SUNNY     75  65  70 VRB3      30.01R
WICHITA INTL   MOSUNNY   74  65  73 SE7       30.01R
WICHITA JABRA  SUNNY     73  65  75 S6        30.01R
WINFIELD       SUNNY     75  66  73 SE7       30.01R
$$

KSZ007>012-019>026-033>040-048>060-102>105-041500-
NORTHEAST KANSAS

CITY           SKY/WX    TMP DP  RH WIND       PRES   REMARKS
CONCORDIA      SUNNY     71  61  70 S7        30.01S
EMPORIA        SUNNY     70  63  78 SE5       30.02R
LAWRENCE       SUNNY     69  63  81 CALM      30.02R
MANHATTAN      SUNNY     69  60  73 CALM      30.02R
OLATHE IND     SUNNY     71  62  73 SE5       30.03R
OLATHE EXE     SUNNY     69  62  78 SE6       30.02R
SALINA         SUNNY     74  61  63 S6        30.01R
TOPEKA BILLARD SUNNY     69  64  84 CALM      30.02R
TOPEKA FORBES  SUNNY     71  62  73 SE3       30.02R
$$



USA.gov is the U.S. government's official web portal to all federal, state and local government web resources and services.